Tracking 30160 objects as of 13-Feb-2025
HD Live streaming from Space Station
objects crossing your sky now

PEGASUS DEB

Track PEGASUS DEB now!
10-day predictions


NORAD ID: 24129
Int'l Code: 1994-029GC
Perigee: 545.6 km
Apogee: 1,354.6 km
Inclination: 81.5 °
Period: 103.9 minutes
Semi major axis: 7321 km
RCS: 0.0937 m2 (small)
Launch date: May 19, 1994
Source: United States (US)
Launch site: AIR FORCE WESTERN TEST RANGE (AFWTR)

Note: This is SATELLITE DEBRIS
Your satellite tracking list
Your tracking list is empty




NASA's NSSDC Master Catalog

Two Line Element Set (TLE):
1 24129U 94029GC  25043.62755374  .00003801  00000-0  97058-3 0  9999
2 24129  81.4733 251.0136 0552533 329.1450  86.2429 13.85915279431987
Source of the keplerian elements: AFSPC